Location: Lake Arresoe
(56.0000°N, 12.5000°E)
Time: 00:04:57
(UTC+02:00)

ARIANE 6 FM1 Upper Stage - Pass Details

Date: 20 August 2025
Orbit: 524 x 604 km, 62.0° (Epoch: 12 April)

Event Time Altitude Azimuth Distance (km) Brightness Sun altitude
Rises 22:29:35 0° 289° (WNW) 2,685 7.2 -13.8°
Maximum altitude 22:35:40 36° 6° (N) 887 4.1 -14.4°
Drops below altitude 10° 22:39:30 10° 74° (ENE) 1,846 5.1 -14.7°
Enters shadow 22:40:39 - 79° (E) 2,275 5.5 -14.8°
